Regional Weather Roundup
Issued by NWS

Home | Current Version | Previous Version | Graphics & Text | Print | Product List | Glossary On
Versions: 1 2 3 4 5 6 7 8 9 10 11 12 13 14 15 16 17 18 19 20 21 22 23 24 25 26 27 28 29 30 31 32 33 34 35 36 37 38 39 40 41 42 43 44 45 46 47 48 49 50
000
ASUS43 KIND 260859
RWRIN

WEATHER ROUNDUP FOR INDIANA
NATIONAL WEATHER SERVICE INDIANAPOLIS IN
500 AM EDT SUN APR 26 2015

NOTE: "FAIR" INDICATES FEW OR NO CLOUDS BELOW 12,000 FEET WITH NO
SIGNIFICANT WEATHER AND/OR OBSTRUCTIONS TO VISIBILITY.

* - STATION DOES NOT REPORT WEATHER SUCH AS PRECIPITATION OR FOG.

+ - STATION NOT QUALITY CONTROLLED BY THE NATIONAL WEATHER SERVICE.
    USE DATA WITH CAUTION...ESPECIALLY DEWPOINT AND RELATIVE
    HUMIDITY OBSERVATIONS.

INZ001>003-010>013-019-020-261000-
NORTHWEST INDIANA

CITY           SKY/WX    TMP DP  RH WIND       PRES   REMARKS

$$

LMZ046-743>745-261000-
SOUTHERN LAKE MICHIGAN

STATION/POSITION TIME  TEMP    WIND        PRES    WAVE
                       AIR SEA DIR/SP/G            HT
                 (UTC) (F)     (DEG/KT/KT) (MB)    (FT)
BURNS HARBOR     0800   44      50/ 14/ 18 1012.2S
MICHIGAN CITY    0800   44      20/ 16/ 19   N/A
5NW MICH CITY    0800   42 45   50/ 14/ 17   N/A     3

$$

INZ004-005-014>016-021>024-261000-
NORTH CENTRAL INDIANA

CITY           SKY/WX    TMP DP  RH WIND       PRES   REMARKS
GOSHEN         CLEAR     36  28  73 N9        29.86R
SOUTH BEND     CLEAR     38  28  67 NE8       29.88R

$$

INZ006>009-017-018-025>027-261000-
NORTHEAST INDIANA

CITY           SKY/WX    TMP DP  RH WIND       PRES   REMARKS
ANGOLA *+      CLEAR     36  27  69 N5        29.85R
FORT WAYNE     CLEAR     37  30  75 N8        29.84R

$$

INZ028-029-035-036-043>045-051>053-261000-
WEST CENTRAL INDIANA

CITY           SKY/WX    TMP DP  RH WIND       PRES   REMARKS
CRAWFORDSVL +  CLOUDY    39  29  66 NE8       29.82R
GREENCASTLE +  CLOUDY    41  30  65 NE7       29.81R
LAFAYETTE      PTCLDY    40  32  73 NE8       29.84R
TERRE HAUTE    CLOUDY    44  34  67 NE10      29.80R

$$

INZ030>032-037>040-046>048-054>057-064-065-261000-
CENTRAL INDIANA

CITY           SKY/WX    TMP DP  RH WIND       PRES   REMARKS
FRANKFORT +    PTCLDY    41  35  79 N8        29.83S
GREENWOOD *+   CLOUDY    41  30  65 NE9       29.79R
INDIANAPOLIS   CLOUDY    43  30  60 NE13      29.78R
-EAGLE CREEK   CLOUDY    42  30  62 NE7       29.79R
KOKOMO *+      PTCLDY    37  30  75 NE10      29.84R
MT COMFORT *+  MOCLDY    41  27  56 NE10      29.80R
SHELBYVILLE    CLOUDY    44  32  62 NE8       29.77R

$$

INZ033-034-041-042-049-050-058-059-261000-
EAST CENTRAL INDIANA

CITY           SKY/WX    TMP DP  RH WIND       PRES   REMARKS
MUNCIE         CLOUDY    40  32  73 NE10      29.80R

$$

INZ060-061-067>069-081>083-085>088-261000-
SOUTHWEST INDIANA

CITY           SKY/WX    TMP DP  RH WIND       PRES   REMARKS
EVANSVILLE     CLOUDY    48  43  82 NE10      29.74R
HUNTINGBURG *+ CLOUDY    46  39  76 NE9       29.74R

$$

INZ062-063-066-070>080-084-089>092-261000-
SOUTH CENTRAL AND SOUTHEAST INDIANA

CITY           SKY/WX    TMP DP  RH WIND       PRES   REMARKS
BLOOMINGTON    CLOUDY    44  35  70 NE8       29.76R
MADISON *+     CLOUDY    45  37  76 N5        29.75R
SEYMOUR +      CLOUDY    46  39  76 N8        29.75R

$$




USA.gov is the U.S. government's official web portal to all federal, state and local government web resources and services.